Weather in Pyrohivka

Ukraine / Sumi District     51°54′46″N   33°17′44″E
temp.,
°C
wind,
m/s
gust,
m/s
humid.,
%
clouds,
%
prec.,
mm/h
press.,
hPa
HPBL,
m
15 may, sat
sat1500:00+12s229017 0.0 100721
03:00+11s35945 0.0 100885
06:00+11s36942 0.1 1008129
09:00+16ssw57811 0.6 1008519
12:00+18sw677134 2.4 10091201
15:00+19sw687020 5.0 10091244
18:00+18sw46745 0.9 1010866
21:00+13ssw38916 2.7 1011133
16 may, sun
sun1600:00+11ssw339326 0.0 101143
03:00+11ssw359639 0.4 101298
06:00+10ssw36955 0.0 1013130
09:00+16sw34790 0.0 1013474
12:00+19ssw336219 0.0 10131301
15:00+21s3356100 0.0 10131530
18:00+20sse236458 0.0 10121269
21:00+15e2277100 0.0 101211
17 may, mon
mon1700:00+13e338471 0.0 101234
03:00+13ene4788100 0.0 1011123
06:00+14ene41194100 0.6 1009265
09:00+18ene5882100 1.4 1007426
12:00+23ese695911 0.0 1006955
15:00+24se795578 0.0 10041316
18:00+22se597375 0.0 1004515
21:00+17ese49925 1.5 1003179
18 may, tue
tue1800:00+18se51294100 0.3 1002319
03:00+16se51195100 0.6 1002301
06:00+15sse61294100 0.0 1002620
09:00+15sse71292100 0.0 1002693
12:00+16sse6992100 0.1 1003636
15:00+18s5881100 2.1 1002674
18:00+18s61182100 3.3 1002568
21:00+14ssw61295100 5.4 1002496
19 may, wed
wed1900:00+11sw61094100 0.3 1003546
03:00+9ssw4109690 0.3 1005435
06:00+10ssw6119467 0.1 1005568
09:00+13ssw813785 0.1 1006949
12:00+16ssw9136480 0.1 10061729
15:00+15sw101573100 1.0 10061780
18:00+11sw91480100 0.4 10081374
21:00+10sw71279100 0.5 1010996